ONEWEB-0236 (48797 NORAD) Tracking and Keplerian Element Data

This shows tracking and keplerian element data for the satellite.

Feedback or suggestion? Click here.




ElementValue
Catalog48797
NameONEWEB-0236
Epoch Orbit1065
Epoch Day211.16667824
Epoch Year2021
RAAN255.7677
Inclination87.4991
Eccentricity0.0009276
Argument of Perigee68.1232
Mean Anonmoly112.2674
Mean Motion14.34317388
Decay Rate-0.0146184
L11 48797U 21045AG 21211.16667824 -.01461840 00000-0 -55796+0 0 9991
L22 48797 87.4991 255.7677 0009276 68.1232 112.2674 14.34317388 10657

Live tracking and technical data element details for ONEWEB-0236 (NORAD 48797). ONEWEB-0236 can be tracked NOW for your location showing map with azimuth and elevation plus other details from your city location.

Track the satellite on the map from your city or location and see movement details for azimuth, elevation, latitude, longitude, range, height, and movement on the map or in text.







IsCatalogInMostPopularTable: catalog: 48797, numindb: 21
Update: records affected: 1



GetName: 48797 ONEWEB-0236

Hit Count: updated at: Sat, 31 Jul 2021 16:09:24 GMT